Time,TemperatureF,DewpointF,PressureIn,WindDirection,WindDirectionDegrees,WindSpeedMPH,WindSpeedGustMPH,Humidity,HourlyPrecipIn,Conditions,Clouds,dailyrainin,SoftwareType,DateUTC
2015-01-25 00:00:00,33.6,32.0,29.79,SW,227,4.0,-999.0,92,-99.99,,,0.00,weatherlink.com 1.10,2015-01-25 05:00:00,
2015-01-25 00:15:00,33.8,32.0,29.78,SW,223,6.0,-999.0,92,-99.99,,,0.00,weatherlink.com 1.10,2015-01-25 05:15:00,
2015-01-25 00:30:00,33.8,32.0,29.78,SW,231,5.0,-999.0,92,-99.99,,,0.00,weatherlink.com 1.10,2015-01-25 05:30:00,
2015-01-25 00:45:00,33.8,32.0,29.78,SW,234,6.0,-999.0,92,-99.99,,,0.00,weatherlink.com 1.10,2015-01-25 05:45:00,
2015-01-25 01:00:00,33.8,32.0,29.78,SW,236,7.0,-999.0,93,-99.99,,,0.00,weatherlink.com 1.10,2015-01-25 06:00:00,
2015-01-25 01:15:00,33.7,32.0,29.78,SW,226,6.0,-999.0,93,-99.99,,,0.00,weatherlink.com 1.10,2015-01-25 06:15:00,
2015-01-25 01:30:00,33.7,32.0,29.78,SW,224,9.0,-999.0,93,-99.99,,,0.00,weatherlink.com 1.10,2015-01-25 06:30:00,
2015-01-25 01:45:00,33.3,32.0,29.79,SW,229,3.0,-999.0,93,-99.99,,,0.00,weatherlink.com 1.10,2015-01-25 06:45:00,
2015-01-25 02:00:00,32.8,31.0,29.79,SW,230,4.0,-999.0,93,-99.99,,,0.00,weatherlink.com 1.10,2015-01-25 07:00:00,
2015-01-25 02:15:00,32.6,31.0,29.79,SW,219,5.0,-999.0,93,-99.99,,,0.00,weatherlink.com 1.10,2015-01-25 07:15:00,
2015-01-25 02:30:00,32.6,31.0,29.78,SW,219,6.0,-999.0,94,-99.99,,,0.00,weatherlink.com 1.10,2015-01-25 07:30:00,
2015-01-25 02:45:00,32.7,31.0,29.77,SW,232,6.0,-999.0,94,-99.99,,,0.00,weatherlink.com 1.10,2015-01-25 07:45:00,
2015-01-25 03:00:00,32.7,31.0,29.77,SSW,206,6.0,-999.0,94,-99.99,,,0.00,weatherlink.com 1.10,2015-01-25 08:00:00,
2015-01-25 03:16:00,32.7,31.0,29.77,SSW,207,11.0,-999.0,94,-99.99,,,0.00,weatherlink.com 1.10,2015-01-25 08:16:00,
2015-01-25 03:30:00,32.8,31.0,29.76,SSW,200,4.0,-999.0,94,-99.99,,,0.00,weatherlink.com 1.10,2015-01-25 08:30:00,
2015-01-25 03:45:00,32.8,31.0,29.76,SSW,194,4.0,-999.0,94,-99.99,,,0.00,weatherlink.com 1.10,2015-01-25 08:45:00,
2015-01-25 04:00:00,32.7,31.0,29.76,SW,229,5.0,-999.0,94,-99.99,,,0.00,weatherlink.com 1.10,2015-01-25 09:00:00,
2015-01-25 04:15:00,32.4,31.0,29.77,SW,219,4.0,-999.0,94,-99.99,,,0.00,weatherlink.com 1.10,2015-01-25 09:15:00,
2015-01-25 04:30:00,32.1,31.0,29.76,SW,219,5.0,-999.0,95,-99.99,,,0.00,weatherlink.com 1.10,2015-01-25 09:30:00,
2015-01-25 04:45:00,32.0,31.0,29.75,SSW,206,7.0,-999.0,95,-99.99,,,0.00,weatherlink.com 1.10,2015-01-25 09:45:00,
2015-01-25 05:00:00,31.9,31.0,29.75,SW,215,4.0,-999.0,95,-99.99,,,0.00,weatherlink.com 1.10,2015-01-25 10:00:00,
2015-01-25 05:15:00,31.7,31.0,29.75,SSW,209,3.0,-999.0,95,-99.99,,,0.00,weatherlink.com 1.10,2015-01-25 10:15:00,
2015-01-25 05:30:00,31.6,30.0,29.75,SSW,207,4.0,-999.0,95,-99.99,,,0.00,weatherlink.com 1.10,2015-01-25 10:30:00,
2015-01-25 05:45:00,31.5,30.0,29.75,SSW,212,7.0,-999.0,95,-99.99,,,0.00,weatherlink.com 1.10,2015-01-25 10:45:00,